Location: Fort Hays State University
(38.8712°N, 99.3432°W)
Time: 11:39:53
(UTC-05:00)

Cosmos 2279 Rocket - Visible Passes

Search period start: 28 May 2017 00:00
Search period end: 07 June 2017 00:00
Orbit: 963 x 980 km, 82.9° (Epoch: 27 May)

Date Brightness Start Highest point End Pass type
(mag) Time Alt. Az. Time Alt. Az. Time Alt. Az.
28 May 4.3 05:07:35 10° N 05:13:49 72° E 05:20:01 10° SSE visible
29 May 6.5 03:48:10 10° NNE 03:52:16 18° ENE 03:56:22 10° ESE visible
29 May 4.0 05:31:56 10° NNW 05:38:05 65° W 05:44:13 10° S visible
30 May 5.7 04:11:27 10° NNE 04:16:57 32° ENE 04:22:25 10° SE visible
31 May 4.6 04:35:18 10° N 04:41:26 57° E 04:47:32 10° SSE visible
01 Jun 6.5 03:16:31 10° NE 03:19:44 14° ENE 03:22:56 10° E visible
01 Jun 4.0 04:59:31 10° N 05:05:45 80° W 05:11:59 10° S visible
02 Jun 5.9 03:39:22 10° NNE 03:44:29 26° ENE 03:49:33 10° SE visible
02 Jun 4.4 05:24:05 10° NNW 05:29:56 44° W 05:35:47 10° SSW visible
03 Jun 4.9 04:03:04 10° N 04:09:01 46° ENE 04:14:59 10° SSE visible
04 Jun 6.6 02:45:27 10° NE 02:47:09 11° ENE 02:48:51 10° E visible
04 Jun 4.1 04:27:09 10° N 04:33:25 83° E 04:39:40 10° S visible
05 Jun 6.1 03:07:24 10° NNE 03:11:59 21° ENE 03:16:33 10° ESE visible
05 Jun 4.1 04:51:35 10° NNW 04:57:39 56° W 05:03:42 10° SSW visible
06 Jun 5.3 03:30:52 10° N 03:36:36 37° ENE 03:42:18 10° SE visible
06 Jun 4.8 05:16:24 10° NNW 05:21:43 31° W 05:27:03 10° SW visible
